ISR4A LCPH-LGAV

Flight info

Callsign ISR4A
Flight time N/A
Altitude 32000
Route GENOS DCT PEDER DCT LUTIG DCT RDS UL995 USINI DCT AKINA DCT RIPLI UL995 VARIX
Aircraft A20N/M-SDE2E3FGHIRWXY/LB1

Departure

Time 2026-04-22 13:33
Airport Paphos International Airport (LCPH)

Arrival

Time N/A
Airport Athens Eleftherios Venizelos International Airport (LGAV)
Time Latitude Longitude Altitude Speed Heading
2026-04-22 13:25 34.71374 32.48842 43 ft 0 kts 157°
2026-04-22 13:30 34.71383 32.48838 44 ft 2 kts 155°
2026-04-22 13:30 34.71396 32.48831 42 ft 2 kts 155°
2026-04-22 13:30 34.71411 32.48822 41 ft 2 kts 153°
2026-04-22 13:30 34.71425 32.48812 40 ft 2 kts 148°
2026-04-22 13:31 34.71439 32.48800 40 ft 2 kts 134°
2026-04-22 13:31 34.71447 32.48783 43 ft 2 kts 84°
2026-04-22 13:31 34.71445 32.48771 43 ft 1 kts 66°
2026-04-22 13:31 34.71444 32.48770 43 ft 0 kts 65°
2026-04-22 13:32 34.71447 32.48775 43 ft 3 kts 64°
2026-04-22 13:32 34.71472 32.48840 43 ft 14 kts 66°
2026-04-22 13:32 34.71545 32.48971 41 ft 23 kts 29°
2026-04-22 13:33 34.71659 32.48977 44 ft 20 kts 291°
2026-04-22 13:33 34.71823 32.48495 44 ft 101 kts 294°
2026-04-22 13:33 34.72131 32.47485 273 ft 136 kts 291°
2026-04-22 13:33 34.72386 32.46321 903 ft 153 kts 275°
2026-04-22 13:34 34.72370 32.44813 1052 ft 201 kts 268°
2026-04-22 13:34 34.72227 32.43022 1758 ft 211 kts 261°
2026-04-22 13:34 34.71980 32.41250 2600 ft 221 kts 260°
2026-04-22 13:34 34.71732 32.39318 3121 ft 242 kts 263°